Location: La Comballaz
(46.3780°N, 7.0817°E)
Time: 09:24:53
(UTC+00:00)

Envisat - Pass Details

Date: 12 December 2021
Orbit: 764 x 766 km, 98.2° (Epoch: 26 January)

Event Time Altitude Azimuth Distance (km) Brightness Sun altitude
Rises 05:32:59 0° 5° (N) 3,245 6.1 -15.2°
Reaches altitude 10° 05:35:30 10° 356° (N) 2,314 5.3 -14.8°
Maximum altitude 05:39:59 32° 294° (WNW) 1,291 3.6 -14.1°
Drops below altitude 10° 05:44:26 10° 233° (SW) 2,299 5.2 -13.4°
Sets 05:46:56 0° 223° (SW) 3,220 6.0 -13.0°
